NOAA 16 DEB, 41280

Orbit data source: Space-Track

NOAA 16 DEB, 41280 is space debris in SSO originally from a launch on Thu, 21 Sep 2000 UTC launched from the Air Force Western Test Range (AFWTR). Debris objects in space refer to the collection of defunct objects orbiting the Earth. Examples of debris include non-operational satellites, rocket bodies, and fragments generated from explosions, collisions, or faulty payload assembly.

Loading next visibility...
Identifier
41280, 2000-055GG
Orbit
SSO
Country
Flag of USUS
Related business
Manufacturer
Unknown
Mission
Spacecraft
Bus & Motor
Unknown
Mass
Unknown
Launch date (UTC)
2000-09-21 (25 years ago)
Launch vehicle
Unknown
Launch site
Air Force Western Test Range (AFWTR)
Object type
Payload
Rocket body
Debris
Shape & HBR
Unknown shape, 0.1 m
Radar Cross Section
Small (<0.1 m²)

Expand to show TLE details & history
Last TLE update: 21 hours ago

TLE from 21 hours ago
0 NOAA 16 DEB
1 41280U 00055GG  25295.46548204  .00004653  00000-0  22096-2 0  9990
2 41280  98.6644 298.0706 0029058 159.0025 201.2351 14.19711526505508
Epoch: 2025-10-22T11:10Z
TLE epoch observation values (Epoch: 2025-10-22T11:10:17.648Z)
Latitude
-0.00006°
Longitude
99.35838°
Altitude
848.769 km
Speed
7.418 km/s
True Right ascension
19h 52m 16s
True Declination
0° 00' 00"
Sunlit
Object was in daylight at epoch
Visualization orbit readout
Latitude
Unknown
Longitude
Unknown
Altitude
Unknown
Speed
Unknown
Apparent Right ascension
Unknown
Apparent Declination
Unknown
Sunlit
N/A
Visualization observer readout
Local Sidereal Time
03:41:27
Azimuth
Unknown
Elevation
Unknown
Doppler factor
Unknown
Orbital elements
Apogee altitude
844.412 km
Perigee altitude
802.559 km
Semi-major axis
7,201.622 km
Eccentricity
0.00291
Inclination
98.6644°
RAAN
298.0706°
Arg. of periapsis
159.0025°
True anomaly
201.1149°
Mean anomaly
201.2351°
Eccentric anomaly
201.17496°
Mean motion
3.55138 °/min
Orbital period
101.37 mins
BSTAR
0.0022096
Loading maneuver chart data...
Computing Atmospheric mass density...
Loading historical data...
Loading historical data...
Loading historical data...
Loading historical data...
Loading historical data...
Loading historical data...
Loading historical data...

Documentation

Showing up to 5 results
|